{"data":{"norad_id":59301,"epoch":"2026-09-21T02:25:52.960224Z","epoch_age_seconds":110297,"freshness":"FRESH","line1":"1 59301U 24056F   26264.10130741  .00000608  00000+0  31631-4 0  9993","line2":"2 59301  43.0005 199.8861 0001373 270.5870  89.4824 15.27575161141121","mean_motion":15.27575161,"eccentricity":0.0001373,"inclination_deg":43.0005,"raan_deg":199.8861,"arg_perigee_deg":270.587,"mean_anomaly_deg":89.4824,"bstar":3.1631e-5,"rev_number":14112,"period_min":94.267047328613,"perigee_km":482.1215429443,"apogee_km":484.00562862515,"semimajor_km":6861.2005857847,"source":"CELESTRAK","updated_at":"2026-09-22T09:00:48.875836Z"}}